| time (UTC) | temp F | wind direction | speed MPH | gust MPH | rain 1hr in | rain 24hr in | rain mn in | humidity % | barometer mb |
| 20260506071323 | 37 | 277 | 0.0 | 1.0 | 0.00 | 0.00 | 0.00 | 57 | 1013.2 |
| 20260506070824 | 37 | 93 | 0.0 | 2.0 | 0.00 | 0.00 | 0.00 | 57 | 1012.9 |
| 20260506070322 | 37 | 181 | 0.0 | 0.0 | 0.00 | 0.00 | 0.00 | 57 | 1012.9 |
| 20260506062322 | 38 | 201 | 0.0 | 0.0 | 0.00 | 0.00 | 0.00 | 55 | 1013.9 |
| 20260506061824 | 38 | 140 | 1.0 | 1.0 | 0.00 | 0.00 | 0.00 | 54 | 1013.9 |
| 20260506061322 | 39 | 221 | 1.0 | 1.0 | 0.00 | 0.00 | 0.00 | 54 | 1013.5 |
| 20260506060820 | 39 | 110 | 1.0 | 2.0 | 0.00 | 0.00 | 0.00 | 53 | 1013.5 |
| 20260506060323 | 39 | 109 | 0.0 | 0.0 | 0.00 | 0.00 | 0.00 | 53 | 1013.5 |
| 20260506051318 | 41 | 160 | 1.0 | 1.0 | 0.00 | 0.00 | 0.00 | 52 | 1013.9 |
| 20260506050818 | 41 | 86 | 2.0 | 3.0 | 0.00 | 0.00 | 0.00 | 51 | 1013.9 |
| 20260506050319 | 41 | 156 | 1.0 | 2.0 | 0.00 | 0.00 | 0.00 | 51 | 1014.2 |
| 20260506044819 | 42 | 108 | 0.0 | 0.0 | 0.00 | 0.00 | 0.00 | 51 | 1014.2 |
| 20260506044318 | 42 | 137 | 1.0 | 2.0 | 0.00 | 0.00 | 0.00 | 51 | 1014.2 |
| 20260506043817 | 42 | 156 | 0.0 | 1.0 | 0.00 | 0.00 | 0.00 | 50 | 1014.2 |
| 20260506043319 | 42 | 140 | 0.0 | 0.0 | 0.00 | 0.00 | 0.00 | 51 | 1014.2 |
| 20260506042818 | 42 | 93 | 1.0 | 1.0 | 0.00 | 0.00 | 0.00 | 50 | 1014.2 |
| 20260506042316 | 42 | 107 | 1.0 | 1.0 | 0.00 | 0.00 | 0.00 | 50 | 1014.6 |
| 20260506041816 | 43 | 138 | 0.0 | 0.0 | 0.00 | 0.00 | 0.00 | 50 | 1014.6 |
| 20260506041317 | 43 | 121 | 0.0 | 0.0 | 0.00 | 0.00 | 0.00 | 50 | 1014.6 |
| 20260506040742 | 43 | 153 | 0.0 | 0.0 | 0.00 | 0.00 | 0.00 | 50 | 1014.6 |
| 20260506040238 | 43 | 151 | 0.0 | 0.0 | 0.00 | 0.00 | 0.00 | 49 | 1014.6 |
| 20260506035743 | 44 | 134 | 1.0 | 1.0 | 0.00 | 0.00 | 0.00 | 49 | 1014.6 |
| 20260506035239 | 44 | 121 | 2.0 | 3.0 | 0.00 | 0.00 | 0.00 | 48 | 1014.6 |
| 20260506034738 | 44 | 106 | 1.0 | 2.0 | 0.00 | 0.00 | 0.00 | 48 | 1014.9 |
| 20260506034239 | 44 | 97 | 2.0 | 3.0 | 0.00 | 0.00 | 0.00 | 48 | 1014.6 |
| 20260506033740 | 44 | 167 | 0.0 | 0.0 | 0.00 | 0.00 | 0.00 | 47 | 1014.6 |
| 20260506033241 | 45 | 156 | 0.0 | 1.0 | 0.00 | 0.00 | 0.00 | 47 | 1014.6 |
| 20260506032742 | 45 | 119 | 2.0 | 2.0 | 0.00 | 0.00 | 0.00 | 47 | 1014.6 |
| 20260506032235 | 45 | 137 | 0.0 | 1.0 | 0.00 | 0.00 | 0.00 | 47 | 1014.6 |
| 20260506031716 | 45 | 105 | 2.0 | 2.0 | 0.00 | 0.00 | 0.00 | 46 | 1014.2 |
| 20260506031214 | 46 | 150 | 1.0 | 2.0 | 0.00 | 0.00 | 0.00 | 46 | 1014.6 |
| 20260506030713 | 46 | 90 | 0.0 | 2.0 | 0.00 | 0.00 | 0.00 | 45 | 1014.6 |
| 20260506030216 | 46 | 117 | 2.0 | 2.0 | 0.00 | 0.00 | 0.00 | 45 | 1014.6 |
| 20260506025715 | 46 | 95 | 1.0 | 2.0 | 0.00 | 0.00 | 0.00 | 44 | 1014.2 |
| 20260506025213 | 47 | 103 | 2.0 | 2.0 | 0.00 | 0.00 | 0.00 | 44 | 1014.6 |
| 20260506024714 | 47 | 111 | 3.0 | 5.0 | 0.00 | 0.00 | 0.00 | 42 | 1014.6 |
| 20260506024215 | 47 | 127 | 4.0 | 6.0 | 0.00 | 0.00 | 0.00 | 42 | 1014.6 |
| 20260506023714 | 48 | 106 | 3.0 | 3.0 | 0.00 | 0.00 | 0.00 | 42 | 1014.6 |
| 20260506023216 | 48 | 103 | 1.0 | 2.0 | 0.00 | 0.00 | 0.00 | 42 | 1014.6 |
| 20260506022714 | 48 | 100 | 3.0 | 5.0 | 0.00 | 0.00 | 0.00 | 41 | 1014.6 |
| 20260506022214 | 49 | 71 | 3.0 | 6.0 | 0.00 | 0.00 | 0.00 | 41 | 1014.6 |
| 20260506021714 | 49 | 98 | 2.0 | 3.0 | 0.00 | 0.00 | 0.00 | 40 | 1014.2 |
| 20260506021139 | 49 | 108 | 3.0 | 3.0 | 0.00 | 0.00 | 0.00 | 39 | 1014.6 |
| 20260506020642 | 50 | 83 | 1.0 | 3.0 | 0.00 | 0.00 | 0.00 | 39 | 1014.6 |
| 20260506020136 | 50 | 91 | 4.0 | 5.0 | 0.00 | 0.00 | 0.00 | 39 | 1014.6 |
| 20260506015640 | 50 | 136 | 1.0 | 2.0 | 0.00 | 0.00 | 0.00 | 39 | 1014.6 |
| 20260506015211 | 50 | 116 | 0.0 | 1.0 | 0.00 | 0.00 | 0.00 | 38 | 1014.6 |
| 20260506014715 | 51 | 147 | 0.0 | 1.0 | 0.00 | 0.00 | 0.00 | 38 | 1014.2 |
| 20260506014213 | 51 | 69 | 2.0 | 2.0 | 0.00 | 0.00 | 0.00 | 38 | 1014.2 |
| 20260506013712 | 51 | 166 | 1.0 | 2.0 | 0.00 | 0.00 | 0.00 | 37 | 1014.6 |
| 20260506013213 | 51 | 85 | 1.0 | 3.0 | 0.00 | 0.00 | 0.00 | 37 | 1014.6 |
| 20260506012709 | 51 | 136 | 3.0 | 3.0 | 0.00 | 0.00 | 0.00 | 37 | 1014.6 |
| 20260506012215 | 51 | 83 | 0.0 | 1.0 | 0.00 | 0.00 | 0.00 | 38 | 1014.2 |
| 20260506011712 | 51 | 123 | 3.0 | 6.0 | 0.00 | 0.00 | 0.00 | 37 | 1014.2 |
| 20260506011210 | 51 | 172 | 3.0 | 3.0 | 0.00 | 0.00 | 0.00 | 38 | 1014.2 |
| 20260506010715 | 52 | 192 | 1.0 | 2.0 | 0.00 | 0.00 | 0.00 | 37 | 1014.2 |
| 20260506010213 | 52 | 155 | 3.0 | 6.0 | 0.00 | 0.00 | 0.00 | 37 | 1014.6 |
| 20260506005713 | 52 | 87 | 1.0 | 2.0 | 0.00 | 0.00 | 0.00 | 37 | 1014.6 |
| 20260506005211 | 52 | 40 | 1.0 | 1.0 | 0.00 | 0.00 | 0.00 | 37 | 1014.6 |
| 20260506004717 | 52 | 121 | 1.0 | 1.0 | 0.00 | 0.00 | 0.00 | 37 | 1014.6 |
| 20260506004214 | 52 | 105 | 1.0 | 1.0 | 0.00 | 0.00 | 0.00 | 37 | 1014.6 |
| 20260506003710 | 52 | 341 | 0.0 | 1.0 | 0.00 | 0.00 | 0.00 | 36 | 1014.6 |
| 20260506003210 | 52 | 318 | 1.0 | 3.0 | 0.00 | 0.00 | 0.00 | 36 | 1014.6 |
| 20260506002712 | 52 | 354 | 2.0 | 2.0 | 0.00 | 0.00 | 0.00 | 36 | 1014.6 |
| 20260506002215 | 52 | 207 | 2.0 | 2.0 | 0.00 | 0.00 | 0.00 | 37 | 1014.6 |
| 20260506001642 | 52 | 354 | 1.0 | 1.0 | 0.00 | 0.00 | 0.00 | 38 | 1014.6 |
| 20260506001137 | 53 | 127 | 8.0 | 9.0 | 0.00 | 0.00 | 0.00 | 37 | 1014.9 |
| 20260506000636 | 53 | 9 | 1.0 | 1.0 | 0.00 | 0.00 | 0.00 | 37 | 1014.6 |
| 20260506000137 | 53 | 61 | 1.0 | 1.0 | 0.00 | 0.00 | 0.00 | 37 | 1014.9 |
| 20260505235641 | 53 | 268 | 2.0 | 2.0 | 0.00 | 0.00 | 0.00 | 37 | 1014.6 |
| 20260505235142 | 53 | 211 | 0.0 | 0.0 | 0.00 | 0.00 | 0.00 | 37 | 1014.9 |
| 20260505234638 | 53 | 42 | 1.0 | 2.0 | 0.00 | 0.00 | 0.00 | 37 | 1014.9 |
| 20260505234137 | 53 | 153 | 1.0 | 1.0 | 0.00 | 0.00 | 0.00 | 37 | 1014.9 |
| 20260505233614 | 53 | 162 | 2.0 | 3.0 | 0.00 | 0.00 | 0.00 | 38 | 1014.9 |
| 20260505233111 | 53 | 231 | 0.0 | 1.0 | 0.00 | 0.00 | 0.00 | 37 | 1015.2 |
| 20260505232613 | 53 | 310 | 1.0 | 1.0 | 0.00 | 0.00 | 0.00 | 37 | 1014.9 |
| 20260505232113 | 53 | 182 | 0.0 | 1.0 | 0.00 | 0.00 | 0.00 | 38 | 1014.9 |
| 20260505231612 | 53 | 230 | 2.0 | 3.0 | 0.00 | 0.00 | 0.00 | 38 | 1014.9 |
| 20260505231112 | 52 | 226 | 5.0 | 8.0 | 0.00 | 0.00 | 0.00 | 38 | 1015.2 |
| 20260505230613 | 52 | 51 | 3.0 | 5.0 | 0.00 | 0.00 | 0.00 | 37 | 1015.2 |
| 20260505230113 | 52 | 263 | 1.0 | 2.0 | 0.00 | 0.00 | 0.00 | 39 | 1015.2 |
| 20260505225613 | 53 | 128 | 4.0 | 7.0 | 0.00 | 0.00 | 0.00 | 38 | 1015.2 |
| 20260505225114 | 52 | 150 | 4.0 | 7.0 | 0.00 | 0.00 | 0.00 | 38 | 1015.2 |
| 20260505224611 | 53 | 89 | 2.0 | 7.0 | 0.00 | 0.00 | 0.00 | 39 | 1015.2 |
| 20260505224111 | 53 | 322 | 2.0 | 2.0 | 0.00 | 0.00 | 0.00 | 39 | 1015.6 |
| 20260505223615 | 53 | 88 | 3.0 | 6.0 | 0.00 | 0.00 | 0.00 | 39 | 1015.2 |
| 20260505223114 | 53 | 225 | 1.0 | 1.0 | 0.00 | 0.00 | 0.00 | 38 | 1015.2 |
| 20260505222612 | 53 | 107 | 3.0 | 5.0 | 0.00 | 0.00 | 0.00 | 39 | 1015.2 |
| 20260505222114 | 53 | 33 | 3.0 | 5.0 | 0.00 | 0.00 | 0.00 | 38 | 1015.6 |
| 20260505221612 | 53 | 354 | 3.0 | 3.0 | 0.00 | 0.00 | 0.00 | 39 | 1015.2 |
| 20260505221114 | 53 | 201 | 0.0 | 1.0 | 0.00 | 0.00 | 0.00 | 40 | 1015.6 |
| 20260505220611 | 53 | 339 | 1.0 | 2.0 | 0.00 | 0.00 | 0.00 | 40 | 1015.6 |
| 20260505220114 | 53 | 23 | 5.0 | 10.0 | 0.00 | 0.00 | 0.00 | 39 | 1015.6 |
| 20260505215542 | 52 | 30 | 4.0 | 8.0 | 0.00 | 0.00 | 0.00 | 39 | 1015.6 |
| 20260505215043 | 52 | 207 | 1.0 | 2.0 | 0.00 | 0.00 | 0.00 | 39 | 1015.9 |
| 20260505214537 | 52 | 39 | 2.0 | 3.0 | 0.00 | 0.00 | 0.00 | 39 | 1015.6 |
| 20260505214042 | 51 | 69 | 2.0 | 5.0 | 0.00 | 0.00 | 0.00 | 39 | 1015.9 |
| 20260505213539 | 51 | 25 | 3.0 | 3.0 | 0.00 | 0.00 | 0.00 | 39 | 1015.9 |
| 20260505213038 | 51 | 61 | 2.0 | 3.0 | 0.00 | 0.00 | 0.00 | 40 | 1015.9 |
| 20260505212542 | 51 | 98 | 3.0 | 5.0 | 0.00 | 0.00 | 0.00 | 40 | 1016.3 |
| 20260505212013 | 51 | 144 | 3.0 | 5.0 | 0.00 | 0.00 | 0.00 | 40 | 1016.3 |
| 20260505211514 | 51 | 110 | 0.0 | 1.0 | 0.00 | 0.00 | 0.00 | 41 | 1015.9 |
| 20260505211011 | 50 | 143 | 2.0 | 3.0 | 0.00 | 0.00 | 0.00 | 41 | 1016.3 |
| 20260505210514 | 50 | 352 | 3.0 | 6.0 | 0.00 | 0.00 | 0.00 | 41 | 1016.3 |
| 20260505210014 | 49 | 352 | 1.0 | 2.0 | 0.00 | 0.00 | 0.00 | 41 | 1016.3 |
| 20260505205512 | 49 | 315 | 1.0 | 3.0 | 0.00 | 0.00 | 0.00 | 40 | 1016.3 |
| 20260505205014 | 49 | 150 | 4.0 | 6.0 | 0.00 | 0.00 | 0.00 | 43 | 1016.3 |
| 20260505204512 | 49 | 154 | 1.0 | 2.0 | 0.00 | 0.00 | 0.00 | 44 | 1016.3 |
| 20260505203941 | 49 | 113 | 3.0 | 3.0 | 0.00 | 0.00 | 0.00 | 43 | 1016.3 |
| 20260505203442 | 49 | 54 | 1.0 | 1.0 | 0.00 | 0.00 | 0.00 | 44 | 1016.3 |
| 20260505202938 | 50 | 51 | 3.0 | 5.0 | 0.00 | 0.00 | 0.00 | 44 | 1016.6 |
| 20260505202414 | 50 | 269 | 1.0 | 2.0 | 0.00 | 0.00 | 0.00 | 42 | 1016.6 |
| 20260505201913 | 50 | 258 | 1.0 | 2.0 | 0.00 | 0.00 | 0.00 | 43 | 1016.6 |
| 20260505201415 | 50 | 128 | 5.0 | 8.0 | 0.00 | 0.00 | 0.00 | 44 | 1016.3 |
| 20260505200913 | 50 | 106 | 5.0 | 7.0 | 0.00 | 0.00 | 0.00 | 43 | 1016.6 |
| 20260505200342 | 50 | 172 | 0.0 | 1.0 | 0.00 | 0.00 | 0.00 | 42 | 1016.6 |
| 20260505195838 | 50 | 59 | 1.0 | 3.0 | 0.00 | 0.00 | 0.00 | 41 | 1016.6 |
| 20260505195340 | 50 | 119 | 0.0 | 0.0 | 0.00 | 0.00 | 0.00 | 42 | 1016.6 |
| 20260505194841 | 50 | 282 | 1.0 | 2.0 | 0.00 | 0.00 | 0.00 | 41 | 1016.6 |
| 20260505194337 | 50 | 5 | 4.0 | 7.0 | 0.00 | 0.00 | 0.00 | 42 | 1016.9 |
| 20260505193837 | 50 | 16 | 2.0 | 2.0 | 0.00 | 0.00 | 0.00 | 41 | 1016.9 |
| 20260505193337 | 49 | 280 | 2.0 | 2.0 | 0.00 | 0.00 | 0.00 | 42 | 1016.6 |
| 20260505192836 | 49 | 141 | 3.0 | 5.0 | 0.00 | 0.00 | 0.00 | 41 | 1016.6 |
| 20260505192340 | 49 | 36 | 5.0 | 9.0 | 0.00 | 0.00 | 0.00 | 41 | 1016.6 |
| 20260505191842 | 49 | 278 | 3.0 | 6.0 | 0.00 | 0.00 | 0.00 | 42 | 1016.9 |
| 20260505191341 | 49 | 129 | 1.0 | 2.0 | 0.00 | 0.00 | 0.00 | 43 | 1016.6 |
| 20260505190842 | 49 | 129 | 5.0 | 7.0 | 0.00 | 0.00 | 0.00 | 42 | 1016.9 |
| 20260505190342 | 49 | 312 | 3.0 | 5.0 | 0.00 | 0.00 | 0.00 | 42 | 1016.9 |
| 20260505185835 | 48 | 182 | 0.0 | 0.0 | 0.00 | 0.00 | 0.00 | 42 | 1017.3 |
| 20260505185336 | 48 | 234 | 1.0 | 1.0 | 0.00 | 0.00 | 0.00 | 42 | 1016.9 |
| 20260505184840 | 48 | 155 | 1.0 | 2.0 | 0.00 | 0.00 | 0.00 | 43 | 1016.9 |
| 20260505184336 | 47 | 220 | 1.0 | 3.0 | 0.00 | 0.00 | 0.00 | 43 | 1016.9 |
| 20260505183837 | 47 | 104 | 2.0 | 5.0 | 0.00 | 0.00 | 0.00 | 44 | 1016.9 |
| 20260505183338 | 46 | 236 | 3.0 | 3.0 | 0.00 | 0.00 | 0.00 | 45 | 1016.9 |
| 20260505182835 | 47 | 234 | 1.0 | 2.0 | 0.00 | 0.00 | 0.00 | 46 | 1017.3 |
| 20260505182342 | 47 | 215 | 3.0 | 5.0 | 0.00 | 0.00 | 0.00 | 46 | 1017.3 |
| 20260505181839 | 47 | 315 | 4.0 | 6.0 | 0.00 | 0.00 | 0.00 | 45 | 1016.9 |
| 20260505181341 | 47 | 136 | 1.0 | 1.0 | 0.00 | 0.00 | 0.00 | 47 | 1017.3 |
| 20260505180812 | 46 | 244 | 0.0 | 1.0 | 0.00 | 0.00 | 0.00 | 48 | 1016.9 |
| 20260505180311 | 46 | 227 | 3.0 | 5.0 | 0.00 | 0.00 | 0.00 | 47 | 1017.3 |
| 20260505175811 | 46 | 298 | 2.0 | 3.0 | 0.00 | 0.00 | 0.00 | 46 | 1016.9 |
| 20260505175317 | 46 | 140 | 0.0 | 0.0 | 0.00 | 0.00 | 0.00 | 47 | 1016.9 |
| 20260505174814 | 45 | 271 | 1.0 | 2.0 | 0.00 | 0.00 | 0.00 | 47 | 1017.3 |
| 20260505174336 | 45 | 164 | 0.0 | 1.0 | 0.00 | 0.00 | 0.00 | 49 | 1016.9 |
| 20260505173836 | 45 | 327 | 9.0 | 13.0 | 0.00 | 0.00 | 0.00 | 51 | 1016.9 |
| 20260505173336 | 45 | 327 | 3.0 | 5.0 | 0.00 | 0.00 | 0.00 | 50 | 1017.3 |
| 20260505172814 | 44 | 145 | 1.0 | 2.0 | 0.00 | 0.00 | 0.00 | 49 | 1017.3 |
| 20260505172336 | 44 | 281 | 5.0 | 6.0 | 0.00 | 0.00 | 0.00 | 52 | 1016.9 |
| 20260505171835 | 43 | 294 | 1.0 | 2.0 | 0.00 | 0.00 | 0.00 | 52 | 1017.3 |
| 20260505171335 | 43 | 291 | 4.0 | 6.0 | 0.00 | 0.00 | 0.00 | 53 | 1017.3 |
| 20260505170836 | 42 | 111 | 4.0 | 7.0 | 0.00 | 0.00 | 0.00 | 54 | 1016.9 |
| 20260505170335 | 42 | 342 | 3.0 | 5.0 | 0.00 | 0.00 | 0.00 | 55 | 1016.9 |
| 20260505165834 | 42 | 230 | 2.0 | 5.0 | 0.00 | 0.00 | 0.00 | 56 | 1017.3 |
| 20260505165333 | 42 | 239 | 1.0 | 2.0 | 0.00 | 0.00 | 0.00 | 59 | 1017.3 |
| 20260505164834 | 42 | 342 | 1.0 | 2.0 | 0.00 | 0.00 | 0.00 | 58 | 1016.9 |
| 20260505164333 | 42 | 170 | 1.0 | 1.0 | 0.00 | 0.00 | 0.00 | 57 | 1016.9 |
| 20260505163834 | 42 | 265 | 0.0 | 1.0 | 0.00 | 0.00 | 0.00 | 59 | 1017.3 |
| 20260505163334 | 42 | 151 | 2.0 | 2.0 | 0.00 | 0.00 | 0.00 | 61 | 1016.9 |
| 20260505162844 | 41 | 267 | 1.0 | 3.0 | 0.00 | 0.00 | 0.00 | 59 | 1016.9 |
| 20260505162344 | 41 | 221 | 0.0 | 1.0 | 0.00 | 0.00 | 0.00 | 58 | 1016.9 |
| 20260505161833 | 41 | 17 | 1.0 | 2.0 | 0.00 | 0.00 | 0.00 | 59 | 1017.3 |
| 20260505161333 | 41 | 336 | 0.0 | 1.0 | 0.00 | 0.00 | 0.00 | 60 | 1017.3 |
| 20260505160833 | 41 | 18 | 3.0 | 5.0 | 0.00 | 0.00 | 0.00 | 62 | 1017.3 |
| 20260505160332 | 41 | 70 | 3.0 | 3.0 | 0.00 | 0.00 | 0.00 | 62 | 1017.3 |
| 20260505153234 | 39 | 28 | 2.0 | 2.0 | 0.00 | 0.00 | 0.00 | 67 | 1017.3 |
| 20260505152733 | 39 | 335 | 0.0 | 1.0 | 0.00 | 0.00 | 0.00 | 65 | 1016.9 |
| 20260505152233 | 39 | 266 | 4.0 | 5.0 | 0.00 | 0.00 | 0.00 | 69 | 1016.9 |
| 20260505151732 | 38 | 224 | 0.0 | 1.0 | 0.00 | 0.00 | 0.00 | 69 | 1017.3 |
| 20260505151232 | 38 | 305 | 2.0 | 3.0 | 0.00 | 0.00 | 0.00 | 70 | 1017.3 |
| 20260505150735 | 38 | 233 | 0.0 | 1.0 | 0.00 | 0.00 | 0.00 | 69 | 1017.3 |
| 20260505150232 | 38 | 282 | 3.0 | 5.0 | 0.00 | 0.00 | 0.00 | 69 | 1017.3 |
| 20260505140231 | 37 | 281 | 2.0 | 2.0 | 0.00 | 0.00 | 0.00 | 71 | 1016.9 |
| 20260505130129 | 36 | 135 | 1.0 | 2.0 | 0.00 | 0.00 | 0.00 | 70 | 1016.9 |
| 20260505124627 | 36 | 232 | 0.0 | 1.0 | 0.00 | 0.00 | 0.00 | 70 | 1016.9 |
| 20260505124128 | 36 | 156 | 0.0 | 0.0 | 0.00 | 0.00 | 0.00 | 71 | 1016.9 |
| 20260505123629 | 36 | 183 | 0.0 | 0.0 | 0.00 | 0.00 | 0.00 | 71 | 1016.6 |
| 20260505123127 | 36 | 95 | 0.0 | 1.0 | 0.00 | 0.00 | 0.00 | 71 | 1016.6 |
| 20260505122628 | 36 | 146 | 0.0 | 0.0 | 0.00 | 0.00 | 0.00 | 71 | 1016.9 |
| 20260505122129 | 36 | 159 | 0.0 | 1.0 | 0.00 | 0.00 | 0.00 | 71 | 1016.6 |
| 20260505121628 | 36 | 171 | 0.0 | 0.0 | 0.00 | 0.00 | 0.00 | 72 | 1016.6 |
| 20260505121125 | 36 | 260 | 0.0 | 1.0 | 0.00 | 0.00 | 0.00 | 72 | 1016.6 |
| 20260505120627 | 36 | 152 | 0.0 | 0.0 | 0.00 | 0.00 | 0.00 | 73 | 1016.6 |
| 20260505120127 | 36 | 322 | 1.0 | 1.0 | 0.00 | 0.00 | 0.00 | 73 | 1016.6 |
| 20260505115626 | 36 | 161 | 0.0 | 0.0 | 0.00 | 0.00 | 0.00 | 74 | 1016.6 |
| 20260505115126 | 36 | 119 | 0.0 | 0.0 | 0.00 | 0.00 | 0.00 | 74 | 1016.6 |
| 20260505114626 | 36 | 158 | 0.0 | 0.0 | 0.00 | 0.00 | 0.00 | 75 | 1016.3 |
| 20260505114125 | 36 | 158 | 0.0 | 0.0 | 0.00 | 0.00 | 0.00 | 75 | 1016.6 |
| 20260505113626 | 36 | 73 | 1.0 | 1.0 | 0.00 | 0.00 | 0.00 | 75 | 1016.6 |
| 20260505113126 | 36 | 43 | 1.0 | 2.0 | 0.00 | 0.00 | 0.00 | 75 | 1016.6 |
| 20260505112628 | 36 | 144 | 0.0 | 0.0 | 0.00 | 0.00 | 0.00 | 75 | 1016.6 |
| 20260505112128 | 36 | 252 | 0.0 | 1.0 | 0.00 | 0.00 | 0.00 | 76 | 1016.6 |
| 20260505111625 | 37 | 62 | 1.0 | 1.0 | 0.00 | 0.00 | 0.00 | 76 | 1016.3 |
| 20260505111127 | 37 | 162 | 0.0 | 0.0 | 0.00 | 0.00 | 0.00 | 76 | 1016.6 |
| 20260505110626 | 37 | 160 | 0.0 | 0.0 | 0.00 | 0.00 | 0.00 | 76 | 1016.6 |
| 20260505110127 | 37 | 148 | 1.0 | 2.0 | 0.00 | 0.00 | 0.00 | 75 | 1016.6 |
| 20260505102138 | 38 | 349 | 1.0 | 3.0 | 0.00 | 0.00 | 0.00 | 72 | 1016.3 |
| 20260505101635 | 39 | 97 | 2.0 | 3.0 | 0.00 | 0.00 | 0.00 | 73 | 1016.3 |
| 20260505101125 | 39 | 116 | 0.0 | 0.0 | 0.00 | 0.00 | 0.00 | 74 | 1016.3 |
| 20260505100625 | 39 | 3 | 1.0 | 1.0 | 0.00 | 0.00 | 0.00 | 74 | 1015.9 |
| 20260505100126 | 39 | 313 | 2.0 | 3.0 | 0.00 | 0.00 | 0.00 | 73 | 1016.3 |
| 20260505095625 | 39 | 136 | 1.0 | 2.0 | 0.00 | 0.00 | 0.00 | 73 | 1015.9 |
| 20260505095124 | 39 | 23 | 0.0 | 1.0 | 0.00 | 0.00 | 0.00 | 73 | 1015.9 |
| 20260505094626 | 39 | 55 | 1.0 | 1.0 | 0.00 | 0.00 | 0.00 | 73 | 1016.3 |
| 20260505094125 | 39 | 259 | 1.0 | 1.0 | 0.00 | 0.00 | 0.00 | 73 | 1015.9 |
| 20260505093624 | 39 | 157 | 0.0 | 0.0 | 0.00 | 0.00 | 0.00 | 74 | 1015.9 |
| 20260505093123 | 39 | 78 | 0.0 | 2.0 | 0.00 | 0.00 | 0.00 | 73 | 1015.9 |
| 20260505092623 | 39 | 66 | 3.0 | 5.0 | 0.00 | 0.00 | 0.00 | 72 | 1015.9 |
| 20260505092125 | 39 | 160 | 0.0 | 1.0 | 0.00 | 0.00 | 0.00 | 71 | 1015.9 |
| 20260505091623 | 39 | 158 | 0.0 | 0.0 | 0.00 | 0.00 | 0.00 | 71 | 1015.9 |
| 20260505091123 | 39 | 162 | 1.0 | 2.0 | 0.00 | 0.00 | 0.00 | 71 | 1015.9 |
| 20260505090625 | 40 | 248 | 1.0 | 2.0 | 0.00 | 0.00 | 0.00 | 70 | 1015.6 |
| 20260505090126 | 40 | 77 | 3.0 | 3.0 | 0.00 | 0.00 | 0.00 | 69 | 1015.6 |
| 20260505085624 | 40 | 51 | 2.0 | 3.0 | 0.00 | 0.00 | 0.00 | 68 | 1015.9 |
| 20260505085122 | 40 | 125 | 1.0 | 2.0 | 0.00 | 0.00 | 0.00 | 67 | 1015.9 |
| 20260505084622 | 40 | 221 | 0.0 | 1.0 | 0.00 | 0.00 | 0.00 | 67 | 1015.9 |
| 20260505084122 | 40 | 102 | 0.0 | 0.0 | 0.00 | 0.00 | 0.00 | 67 | 1015.9 |
| 20260505083622 | 40 | 114 | 0.0 | 0.0 | 0.00 | 0.00 | 0.00 | 67 | 1015.9 |
| 20260505083121 | 40 | 149 | 0.0 | 0.0 | 0.00 | 0.00 | 0.00 | 67 | 1015.6 |
| 20260505082621 | 40 | 160 | 0.0 | 1.0 | 0.00 | 0.00 | 0.00 | 67 | 1015.6 |
| 20260505082124 | 40 | 185 | 0.0 | 1.0 | 0.00 | 0.00 | 0.00 | 67 | 1015.6 |
| 20260505081623 | 40 | 144 | 1.0 | 1.0 | 0.00 | 0.00 | 0.00 | 67 | 1015.6 |
| 20260505081124 | 40 | 81 | 2.0 | 3.0 | 0.00 | 0.00 | 0.00 | 67 | 1015.9 |
| 20260505080622 | 40 | 76 | 0.0 | 1.0 | 0.00 | 0.00 | 0.00 | 66 | 1015.6 |
| 20260505080123 | 40 | 318 | 1.0 | 2.0 | 0.00 | 0.00 | 0.00 | 66 | 1015.6 |
| 20260505075622 | 40 | 152 | 0.0 | 0.0 | 0.00 | 0.00 | 0.00 | 65 | 1015.9 |
| 20260505075123 | 40 | 344 | 1.0 | 1.0 | 0.00 | 0.00 | 0.00 | 65 | 1015.9 |
| 20260505074621 | 40 | 134 | 2.0 | 2.0 | 0.00 | 0.00 | 0.00 | 65 | 1015.6 |
| 20260505074122 | 40 | 100 | 0.0 | 0.0 | 0.00 | 0.00 | 0.00 | 64 | 1015.6 |
| 20260505073621 | 40 | 104 | 2.0 | 3.0 | 0.00 | 0.00 | 0.00 | 64 | 1015.6 |
| 20260505073121 | 41 | 101 | 3.0 | 3.0 | 0.00 | 0.00 | 0.00 | 64 | 1015.9 |
| 20260505072621 | 41 | 110 | 1.0 | 2.0 | 0.00 | 0.00 | 0.00 | 64 | 1015.6 |
| 20260505072120 | 41 | 133 | 1.0 | 2.0 | 0.00 | 0.00 | 0.00 | 63 | 1015.6 |
| 20260505071619 | 41 | 96 | 2.0 | 2.0 | 0.00 | 0.00 | 0.00 | 63 | 1015.6 |